STARLINK-5878, 55955

Orbit data source: Space-Track

STARLINK-5878, 55955 is a payload satellite owned by SpaceX/Seattle (US) in LEO that was launched on Fri, 17 Mar 2023 UTC via an FALCON 9 launch vehicle from the Air Force Western Test Range (AFWTR). Payload-class satellites include a variety of spacecraft equipped with specific instruments for various scientific and technological missions. These include communications satellites like Starlink; space stations such as the ISS; scientific satellites like the Hubble; Earth observation satellites from companies like Planet Labs, Umbra, and HawkEye 360; GPS; miniature CubeSats for education and research; and military/defense satellites.

Loading next visibility...
Identifier
55955, 2023-037AT
Orbit
LEO
Country
Flag of USUS
Related business
Manufacturer
SpaceX/Seattle
Mission
Operational Commercial Communications
Bus & Motor
STARLINK, Unknown motor
Mass
305 kg wet, ~290 kg dry
Launch date (UTC)
2023-03-17 (3 years ago)
Launch vehicle
FALCON 9
Launch site
Air Force Western Test Range (AFWTR)
Object type
Payload
Rocket body
Debris
Shape & HBR
Box + 1 Pan, 10.1 m
Radar Cross Section
11.087 m², Large (>1 m²)

Expand to show TLE details & history
Last TLE update: 3 days ago

TLE from 3 days ago
0 STARLINK-5878
1 55955U 23037AT  26170.90852471  .00000317  00000-0  34364-4 0  9991
2 55955  69.9997   6.7650 0002899 267.6503  92.4325 14.98333898179784
Epoch: 2026-06-19T21:48Z
TLE epoch observation values (Epoch: 2026-06-19T21:48:16.534Z)
Latitude
0.00003°
Longitude
131.56537°
Altitude
574.554 km
Speed
7.574 km/s
True Right ascension
00h 27m 03s
True Declination
0° 00' 00"
Sunlit
Object was in daylight at epoch
Visualization orbit readout
Latitude
Unknown
Longitude
Unknown
Altitude
Unknown
Speed
Unknown
Apparent Right ascension
Unknown
Apparent Declination
Unknown
Sunlit
N/A
Visualization observer readout
Local Sidereal Time
21:29:21
Azimuth
Unknown
Elevation
Unknown
Doppler factor
Unknown
Orbital elements
Apogee altitude
572.006 km
Perigee altitude
567.978 km
Semi-major axis
6,948.129 km
Eccentricity
0.00029
Inclination
69.9997°
RAAN
6.765°
Arg. of periapsis
267.6503°
True anomaly
92.46569°
Mean anomaly
92.4325°
Eccentric anomaly
92.44909°
Mean motion
3.7475 °/min
Orbital period
96.06 mins
BSTAR
0.000034364
Loading maneuver chart data...
Computing Atmospheric mass density...
Loading historical data...
Loading historical data...
Loading historical data...
Loading historical data...
Loading historical data...
Loading historical data...
Loading historical data...

Documentation

Showing up to 5 results
|